www.pogodaiklimat.ru

Погода и климат >> Архив погоды >> Тунис >> Эль Борма


ПОГОДА в Эль Борма

  • Прогноз погоды в Эль Борма
  • Монитор погоды в Эль Борма

АРХИВ ПОГОДЫ в Эль Борма

Время (UTC), дата Ветер
(напр.,м/с)
 
Видим.   Явления Облачность Т
(С)
Тd
(С)
f
(%)
Тe
(С)
Тes
(С)
Комфортность P
(гПа)
Po
(гПа)
Тmin
(С)
Tmax
(С)
R
(мм)
R24
(мм)
S
(см)
06 11.06 ЮВ 4 8000 м 5/0
[Ac cast Ci sp]
+30.7 -1.9 12 +27 +29 жарко 1005.9 977.2 +29.0
09 11.06 Ю 13 2000 м пыльный позёмок 8/0
[Ac cast Ci sp]
+37.6 -0.6 9 +34 +34 очень
жарко
1005.4 977.3
12 11.06 ЮВ 7 2000 м пыльный позёмок 8/3 600 м
[Cu med, cong Ac cast Ci sp]
+41.9 -0.9 7 +38 +41 очень
жарко
1004.3 976.6
15 11.06 ЮВ 12 1200 м пыльный позёмок 8/3 700 м
[Cu med, cong Ac cast Ci sp]
+42.4 -0.8 7 +39 +39 очень
жарко
1002.6 975.0
06 12.06 0 8000 м 6/0
[Ac cast Ci sp]
+30.1 -0.3 14 1007.1 978.3 +28.7
09 12.06 Ю 6 8000 м 6/0
[Ac cast Ci sp]
+14.1 +3.7 50 +12 +16 1007.2 979.3
12 12.06 ЮЗ 3 8000 м 4/0
[Ci sp]
+41.9 +5.4 11 +39 +57 опасность
солнечного
удара
1006.5 978.8 2
15 12.06 Ю 7 8000 м 4/0
[Ci sp]
+43.4 +6.5 11 +41 +43 опасность
перегрева
1005.4 977.9
06 13.06 В 3 8000 м 6/3 900 м
[Sc Ac trans]
+28.0 +16.0 48 +31 +32 душно 1011.5 982.5 +27.3
09 13.06 ЮВ 7 7000 м 8/1 900 м
[Sc Ac trans Ci sp]
+39.2 +5.7 13 +36 +39 очень
жарко
1011.6 983.5
12 13.06 Ю 4 7000 м 8/1 900 м
[Sc Ac trans Ci sp]
+44.0 +5.6 10 +41 +49 опасность
перегрева
1010.1 982.5
15 13.06 ЮЗ 5 7000 м 6/3 300 м
[Cu med, cong Ac cast Ci sp]
+44.1 +4.2 9 +41 +44 опасность
перегрева
1008.9 981.3
06 14.06 ЮВ 1 8000 м 6/4 1000 м
[Sc Ac trans]
+35.5 +5.8 16 +33 +34 жарко 1011.9 983.5 +33.1
09 14.06 ЮВ 7 8000 м 4/0
[Ci sp]
+42.1 +5.6 11 +39 +43 очень
жарко
1012.0 984.2
12 14.06 Ю 3 8000 м 6/0
[Ci sp]
+45.7 +1.8 7 +42 +58 опасность
перегрева
1010.9 983.4
15 14.06 Ю 4 10 км 6/0
[Ci sp]
+45.8 +1.9 7 +42 +48 опасность
перегрева
1009.3 981.8
06 15.06 СВ 4 7000 м ясно +27.9 +17.4 53 +32 +34 душно 1011.9 982.9 +26.8
09 15.06 В 3 7000 м ясно +36.2 +13.6 26 +37 +51 опасность
солнечного
удара
1011.4 983.1
12 15.06 СЗ 2 10 км ясно +42.5 +8.3 13 +40 +63 опасность
солнечного
удара
1010.1 982.4
15 15.06 СЗ 4 10 км 5/0
[Ci sp]
+44.6 +6.1 10 +42 +48 опасность
перегрева
1008.5 981.0
06 16.06 В 3 10 км ясно +26.2 +15.6 52 +29 +31 жарко 1012.1 982.9 +25.4
09 16.06 В 3 10 км ясно +34.1 +13.0 28 +35 +47 очень
жарко
1011.9 983.4
12 16.06 СВ 2 10 км ясно +40.7 +10.0 16 +39 +60 опасность
солнечного
удара
1010.3 982.4
15 16.06 С 3 10 км ясно +42.7 +8.4 13 +41 +50 опасность
перегрева
1008.2 980.6
06 17.06 0 8000 м 6/0
[Ac trans Ci sp]
+26.2 +15.3 51 1008.6 979.5 +24.1
09 17.06 В 8 7000 м 6/0
[Ac trans Ci sp]
+33.6 +14.6 32 +35 +37 душно 1007.4 979.0
12 17.06 В 4 10 км 6/4 900 м
[Sc Ac trans Ci sp]
+41.3 +13.0 19 +41 +48 опасность
перегрева
1004.1 976.5
15 17.06 СВ 11 2000 м пыльный позёмок 5/0
[Ac cast Ci sp]
+40.3 +12.2 19 +40 +40 очень
жарко
1002.9 975.2

 

Местоположение метеостанции Эль Борма (Тунис): широта 31.68 долгота 9.17 высота над уровнем моря 259 м.

В архиве по умолчанию представлена погода в Эль Борма за последнюю неделю. Архивные данные за месяц целиком и за предыдущие месяцы, начиная с января 2011 года, Вы можете получить, выбрав интересующий диапазон дат из раскрывающегося списка и нажав кнопку "Ввод!".


*Определитесь, кто Вы:
робот инопланетянин человек

Внимание! Время в таблицах - всемирное. Для получения местного времени необходимо прибавить поправку, которая равна 1 ч.

Смотрите также архив погоды в соседних городах и на ближайших метеорологических станциях:

Погода в Ремаде (Тунис) (136 км)
Погода в Налуте (Ливия) (172 км)
Погода в Гадамесе (Ливия) (175 км)
Погода в Татуине (Тунис) (183 км)
Погода в Меденине (Тунис) (223 км)
Погода в Кебили (Тунис) (225 км)
Погода в Габесе (Тунис) (239 км)
Погода в Таузаре (Тунис) (266 км)
Погода в Хасси-Мессауде (Алжир) (286 км)
Погода в Аэропорту Джерба-Зарзис (Тунис) (286 км)

Пояснения к столбцам:

Ветер - указаны скорость ветра в м/с - средняя за 10 мин, порывы в срок и между сроками (в фигурных скобках) и направление, откуда дует ветер: С - северный, СВ - северо-восточный, В - восточный, ЮВ - юго-восточный, Ю - южный, ЮЗ - юго-западный, З - западный, СЗ - северо-западный.
Видимость - горизонтальная дальность видимости в метрах или километрах. При видимости от 1 до 10 км при отсутствии осадков обычно наблюдается дымка, при ухудшении видимости до 1 км и менее - туман. В сухую погоду видимость может ухудшаться дымом, пылью или мглою.
Явления - указаны атмосферные явления, наблюдавшиеся в срок или в последний час перед сроком; фигурными скобками обозначены явления, наблюдавшиеся между сроками (за 1-3 часа до срока); квадратными скобками обозначены град или гололедные отложения с указанием их диаметра в мм.
Облачность - указаны через наклонную черту общая и нижняя облачность в баллах и высота нижней границы облаков в метрах; квадратными скобками обозначены формы облаков: Ci - перистые, Cs - перисто-слоистые, Cc - перисто-кучевые, Ac - высококучевые, As - высокослоистые, Sc - слоисто-кучевые, Ns - слоисто-дождевые, Cu - кучевые, Cb - кучево-дождевые. Подробнее классификацию облаков см. в Атласе облаков (PDF).
T - Температура воздуха - температура, измеренная на высоте 2 м над землей.
Td - Температура точки росы - температура, при понижении до которой содержащийся в воздухе водяной пар достигнет насыщения.
f - Относительная влажность воздуха - влажноcть воздуха, измеренная на высоте 2 м над землей.
Te - Эффективная температура - температура, которую ощущает одетый по сезону человек в тени. Характеристика душности погоды. При расчете учитывается влияние влажности воздуха и скорости ветра на теплоощущения человека.
Tes - Эффективная температура на солнце - температура, которую ощущает человек, с поправкой на солнечный нагрев. Характеристика знойности погоды. Зависит от высоты солнца над горизонтом, облачности и скорости ветра. Ночью, в пасмурную погоду, а также при ветре 12 м/с и более поправка равна нулю.
P - Атмосферное давление - приведенное к уровню моря атмосферное давление.
Po - Атмосферное давление - измеренное на уровне метеостанции атмосферное давление.
Tmin - Минимальная температура - минимум температуры воздуха на высоте 2 м над землей.
Tmax - Максимальная температура - максимум температуры воздуха на высоте 2 м над землей.
R - Количество осадков - Количество выпавших осадков за период времени, мм. При наведении курсора мыши на число - период времени, за который выпало указанное количество осадков.
R24 - Количество осадков - Количество выпавших осадков за 24 часа, мм.
S - Снежный покров - Высота снежного покрова, см. При наведении курсора мыши на число - состояние снежного покрова и степень покрытия местности в баллах.